User: anonymous   Login
Location: Houston
(29.7630°N, 95.3630°W)
Time: 04:27:20
(UTC-05:00)
Language:

Saudisat 1A - Orbit

View from above orbital plane
View from above orbital plane
View from above satellite
View from above satellite

Ground track
Ground track

The orbit data is extracted from the following two-line orbital elements,

1 26546U 00057B   15185.84553105  .00000721  00000-0  91035-4 0  9998
2 26546 064.5553 046.8084 0032704 311.7993 048.0323 14.89589702800362
Epoch (UTC): 04 July 2015 20:17:33
Eccentricity: 0.0032704
inclination: 64.5553°
perigee height: 576 km
apogee height: 622 km
right ascension of ascending node: 46.8084°
argument of perigee: 311.7993°
revolutions per day: 14.89589702
mean anomaly at epoch: 48.0323°
orbit number at epoch: 80036

The dashed part of the orbit path shows where the satellite is in the earth's shadow,  

DLR